Flag for Belgium Weather past 2 weeks in Brussels, Belgium

45 °F

Light rain. Passing clouds.

Feels Like: 35 °F
Forecast: 46 / 53 °F
Wind: 26 mph from Southwest

Location: Brussels National Airport

Current Time: Nov 28, 2015 at 11:26:31 PM

Latest Report: Nov 28, 2015 at 10:50 PM

Visibility: N/A

Pressure: 29.83 "Hg

Humidity: 81%

Dew point: 39 °F

Location of BrusselsLocation

Historic Weather in Brussels — Graph


Brussels temperature yesterday

Maximum temperature yesterday: 43 °F (at 11:50 AM)
Minimum temperature yesterday: 34 °F (at 1:50 AM)
Average temperature yesterday: 39 °F

Past Weeks' High & Low Weather Summary

High61 °F (Nov 15, 1:50 PM)100% (Nov 17, 1:20 PM)30.33 "Hg (Nov 17, 1:20 PM)
Low30 °F (Nov 23, 8:20 AM)11% (Nov 16, 5:20 PM)29.39 "Hg (Nov 21, 12:20 PM)
Average45 °F83%29.92 "Hg
* Reported Nov 13 9:20 PM — Nov 28 9:50 PM, Brussels, Weather by CustomWeather, © 2015

Note: Actual official high and low records may vary slightly from our data, if they occured in-between our weather recording intervals... More about our weather records


Brussels weather history for previous 24 hours

Time TempWeatherWind HumidityBarometerVisibility
9:50 PM
Sat, Nov 28
46 °FPassing clouds.25 mph71%29.86 "HgN/A
9:20 PM46 °FPartly cloudy.23 mph71%29.86 "HgN/A
8:50 PM45 °FPassing clouds.26 mph76%29.89 "HgN/A
8:20 PM45 °FPassing clouds.18 mph76%29.89 "HgN/A
7:50 PM43 °FLight rain. Partly cloudy.21 mph81%29.92 "HgN/A
7:20 PM45 °FLight rain. Partly cloudy.17 mph76%29.92 "HgN/A
6:50 PM45 °FLight rain. Passing clouds.18 mph76%29.92 "HgN/A
6:20 PM45 °FLight rain. Partly cloudy.16 mph76%29.95 "HgN/A
5:50 PM43 °FLight rain. Passing clouds.17 mph81%29.95 "HgN/A
5:20 PM45 °FLight rain. Passing clouds.16 mph71%29.95 "HgN/A
4:50 PM45 °FPassing clouds.15 mph71%29.95 "HgN/A
4:20 PM43 °FPassing clouds.13 mph76%29.98 "HgN/A
3:50 PM45 °FPassing clouds.13 mph71%29.98 "HgN/A
3:20 PM45 °FPassing clouds.13 mph66%29.98 "HgN/A
2:50 PM45 °FPassing clouds.16 mph66%30.01 "HgN/A
2:20 PM45 °FPassing clouds.14 mph66%30.01 "HgN/A
1:50 PM45 °FPassing clouds.14 mph66%30.01 "HgN/A
1:20 PM45 °FPassing clouds.13 mph71%30.01 "HgN/A
12:50 PM43 °FPassing clouds.13 mph71%30.01 "HgN/A
12:20 PM43 °FPassing clouds.13 mph76%30.01 "HgN/A
11:50 AM43 °FPassing clouds.14 mph76%30.01 "HgN/A
11:20 AM43 °FPassing clouds.12 mph76%29.98 "HgN/A
10:50 AM41 °FPassing clouds.12 mph76%29.98 "HgN/A
10:20 AM41 °FPassing clouds.10 mph76%29.98 "HgN/A
9:50 AM41 °FPassing clouds.12 mph76%29.95 "HgN/A
9:20 AM39 °FPassing clouds.9 mph81%29.95 "HgN/A
8:50 AM39 °FPassing clouds.8 mph81%29.95 "HgN/A
7:20 AM41 °FPassing clouds.13 mph81%29.89 "HgN/A
6:50 AM41 °FPassing clouds.13 mph81%29.89 "HgN/A
6:20 AM41 °FPassing clouds.13 mph81%29.86 "HgN/A
5:50 AM43 °FPassing clouds.15 mph76%29.83 "HgN/A
5:20 AM43 °FPartly cloudy.17 mph87%29.83 "Hg5 mi
4:50 AM43 °FLight rain. Passing clouds.17 mph81%29.80 "HgN/A
4:20 AM43 °FLight rain. Partly cloudy.20 mph93%29.77 "HgN/A
3:50 AM45 °FLight rain. Partly cloudy.18 mph87%29.74 "Hg5 mi
3:20 AM43 °FRain. Partly cloudy.13 mph93%29.74 "Hg2 mi
2:50 AM43 °FLight rain. Partly cloudy.16 mph93%29.71 "HgN/A
2:20 AM41 °FLight rain. Partly cloudy.16 mph93%29.71 "Hg5 mi
12:50 AM39 °FPartly cloudy.17 mph87%29.71 "HgN/A
11:50 PM
Fri, Nov 27
39 °FPartly cloudy.17 mph87%29.74 "Hg5 mi
11:20 PM39 °FPartly cloudy.17 mph87%29.77 "Hg5 mi
Weather by CustomWeather, © 2015

See weather overviewHow to use our weather pages